GW0125 Weather Reports


time (UTC)temp
C
wind
direction
speed
KPH
gust
KPH
rain 1hr
cm
rain 24hr
cm
rain mn
cm
humidity
%
barometer
mb
20260906215042 30 191 6.4 25.7 0.00 0.00 0.00 38 1019.1
20260906214559 30 0 9.7 29.0 0.00 0.00 0.00 38 1019.2
20260906214041 30 214 4.8 29.0 0.00 0.00 0.00 37 1019.3
20260906213543 30 206 4.8 29.0 0.00 0.00 0.00 38 1019.4
20260906213100 30 178 3.2 24.1 0.00 0.00 0.00 39 1019.4
20260906212542 30 219 9.7 24.1 0.00 0.00 0.00 39 1019.4
20260906212044 30 200 4.8 25.7 0.00 0.00 0.00 39 1019.7
20260906211602 30 211 6.4 25.7 0.00 0.00 0.00 39 1019.6
20260906211039 30 192 3.2 22.5 0.00 0.00 0.00 40 1019.7
20260906210539 30 128 6.4 22.5 0.00 0.00 0.00 40 1019.6
20260906210112 30 0 4.8 17.7 0.00 0.00 0.00 41 1019.7
20260906205542 30 155 4.8 24.1 0.00 0.00 0.00 41 1019.8
20260906205042 30 215 4.8 24.1 0.00 0.00 0.00 40 1019.8
20260906204604 30 119 6.4 17.7 0.00 0.00 0.00 41 1019.8
20260906204040 30 156 3.2 16.1 0.00 0.00 0.00 40 1019.9
20260906203540 30 202 4.8 16.1 0.00 0.00 0.00 39 1020.0
20260906203054 30 130 3.2 22.5 0.00 0.00 0.00 39 1020.1
20260906202541 31 129 4.8 22.5 0.00 0.00 0.00 38 1020.2
20260906202041 31 196 4.8 20.9 0.00 0.00 0.00 38 1020.5
20260906201552 31 212 3.2 19.3 0.00 0.00 0.00 39 1020.3
20260906201040 31 230 6.4 20.9 0.00 0.00 0.00 39 1020.4
20260906200539 31 142 4.8 20.9 0.00 0.00 0.00 39 1020.5
20260906200053 31 179 4.8 16.1 0.00 0.00 0.00 38 1020.4
20260906195544 31 168 3.2 16.1 0.00 0.00 0.00 38 1020.5
20260906195043 31 183 6.4 19.3 0.00 0.00 0.00 38 1020.5
20260906194619 31 201 4.8 19.3 0.00 0.00 0.00 37 1020.5
20260906194040 31 196 3.2 19.3 0.00 0.00 0.00 37 1020.7
20260906193541 31 228 11.3 19.3 0.00 0.00 0.00 37 1020.6
20260906193104 31 241 8.0 22.5 0.00 0.00 0.00 36 1020.7
20260906192540 31 230 9.7 22.5 0.00 0.00 0.00 37 1020.9
20260906192039 31 188 3.2 20.9 0.00 0.00 0.00 38 1020.9
20260906191551 31 248 4.8 19.3 0.00 0.00 0.00 37 1020.9
20260906191038 31 205 3.2 20.9 0.00 0.00 0.00 37 1021.0
20260906190539 31 238 4.8 20.9 0.00 0.00 0.00 37 1021.0
20260906190059 31 240 6.4 20.9 0.00 0.00 0.00 37 1020.9
20260906185542 31 192 8.0 20.9 0.00 0.00 0.00 38 1021.1
20260906185046 31 114 4.8 12.9 0.00 0.00 0.00 38 1021.2
20260906184607 31 184 3.2 16.1 0.00 0.00 0.00 39 1021.4
20260906184043 31 133 3.2 16.1 0.00 0.00 0.00 38 1021.5
20260906183541 31 207 8.0 16.1 0.00 0.00 0.00 39 1021.5
20260906183102 30 220 6.4 16.1 0.00 0.00 0.00 38 1021.6
20260906182539 30 197 4.8 16.1 0.00 0.00 0.00 39 1021.8
20260906182039 30 177 4.8 16.1 0.00 0.00 0.00 39 1021.9
20260906181552 30 221 6.4 17.7 0.00 0.00 0.00 40 1022.0
20260906181045 30 217 4.8 17.7 0.00 0.00 0.00 40 1022.1
20260906180546 30 194 4.8 20.9 0.00 0.00 0.00 40 1022.1
20260906180058 30 236 6.4 20.9 0.00 0.00 0.00 39 1022.2
20260906175543 29 200 8.0 19.3 0.00 0.00 0.00 40 1022.4
20260906175044 29 232 3.2 16.1 0.00 0.00 0.00 41 1022.4
20260906174554 29 211 6.4 16.1 0.00 0.00 0.00 40 1022.4
20260906174042 28 195 3.2 12.9 0.00 0.00 0.00 41 1022.5
20260906173543 28 195 4.8 12.9 0.00 0.00 0.00 41 1022.6
20260906173053 28 226 4.8 12.9 0.00 0.00 0.00 40 1022.7
20260906172544 28 0 3.2 12.9 0.00 0.00 0.00 41 1022.8
20260906172046 28 203 3.2 11.3 0.00 0.00 0.00 42 1022.7
20260906171607 28 188 3.2 9.7 0.00 0.00 0.00 41 1022.7
20260906171041 27 193 1.6 12.9 0.00 0.00 0.00 40 1022.9
20260906170541 27 193 1.6 12.9 0.00 0.00 0.00 39 1023.0
20260906170055 27 199 4.8 11.3 0.00 0.00 0.00 40 1022.9
20260906165542 27 0 1.6 14.5 0.00 0.00 0.00 40 1023.0
20260906165041 27 191 1.6 14.5 0.00 0.00 0.00 42 1022.9
20260906164558 27 202 1.6 8.0 0.00 0.00 0.00 40 1022.9
20260906164041 27 202 3.2 14.5 0.00 0.00 0.00 41 1022.9
20260906163541 26 202 1.6 14.5 0.00 0.00 0.00 40 1022.9
20260906163054 26 205 4.8 14.5 0.00 0.00 0.00 39 1023.0
20260906162543 26 199 3.2 12.9 0.00 0.00 0.00 40 1022.9
20260906162047 26 209 6.4 11.3 0.00 0.00 0.00 39 1022.9
20260906161603 26 0 1.6 9.7 0.00 0.00 0.00 40 1023.0
20260906161042 27 118 1.6 9.7 0.00 0.00 0.00 40 1022.9
20260906160543 27 118 1.6 11.3 0.00 0.00 0.00 40 1022.9
20260906160059 26 0 1.6 11.3 0.00 0.00 0.00 40 1022.8
20260906155539 26 0 3.2 11.3 0.00 0.00 0.00 40 1022.9
20260906155045 26 0 0.0 6.4 0.00 0.00 0.00 40 1022.8
20260906154553 26 26 0.0 6.4 0.00 0.00 0.00 40 1022.8
20260906154103 26 0 1.6 8.0 0.00 0.00 0.00 40 1022.7
20260906153539 25 26 1.6 8.0 0.00 0.00 0.00 43 1022.7
20260906153101 25 17 1.6 9.7 0.00 0.00 0.00 42 1022.6
20260906152539 25 17 0.0 11.3 0.00 0.00 0.00 42 1022.6
20260906152039 25 0 3.2 11.3 0.00 0.00 0.00 42 1022.6
20260906151558 25 0 0.0 6.4 0.00 0.00 0.00 45 1022.7
20260906151038 24 0 0.0 4.8 0.00 0.00 0.00 47 1022.7
20260906150542 23 0 0.0 4.8 0.00 0.00 0.00 46 1022.6
20260906145539 22 11 0.0 6.4 0.00 0.00 0.00 49 1022.6
20260906145039 22 10 0.0 4.8 0.00 0.00 0.00 50 1022.5
20260906144621 21 11 0.0 4.8 0.00 0.00 0.00 51 1022.6
20260906144039 21 11 1.6 4.8 0.00 0.00 0.00 54 1022.6
20260906143539 20 360 0.0 3.2 0.00 0.00 0.00 56 1022.6
20260906143102 19 0 0.0 6.4 0.00 0.00 0.00 59 1022.6
20260906142540 19 5 0.0 6.4 0.00 0.00 0.00 58 1022.4
20260906142041 18 5 1.6 8.0 0.00 0.00 0.00 59 1022.4
20260906141604 18 360 1.6 8.0 0.00 0.00 0.00 59 1022.4
20260906141042 17 360 1.6 9.7 0.00 0.00 0.00 61 1022.4
20260906140542 17 0 1.6 9.7 0.00 0.00 0.00 63 1022.5
20260906140055 16 360 0.0 6.4 0.00 0.00 0.00 68 1022.6
20260906135540 16 0 0.0 1.6 0.00 0.00 0.00 71 1022.5
20260906135040 16 0 0.0 0.0 0.00 0.00 0.00 72 1022.4
20260906134601 15 0 0.0 3.2 0.00 0.00 0.00 72 1022.3
20260906134043 15 0 0.0 3.2 0.00 0.00 0.00 72 1022.3
20260906133538 15 286 0.0 4.8 0.00 0.00 0.00 73 1022.2
20260906133056 15 286 0.0 4.8 0.00 0.00 0.00 74 1022.3
20260906132541 15 0 0.0 3.2 0.00 0.00 0.00 73 1022.2
20260906132046 14 0 1.6 3.2 0.00 0.00 0.00 73 1022.1
20260906131556 14 0 0.0 3.2 0.00 0.00 0.00 72 1022.2
20260906131039 14 0 0.0 1.6 0.00 0.00 0.00 72 1022.1
20260906130539 14 0 0.0 1.6 0.00 0.00 0.00 72 1022.2
20260906130053 14 0 0.0 0.0 0.00 0.00 0.00 71 1022.2
20260906125541 14 0 0.0 0.0 0.00 0.00 0.00 71 1022.1
20260906125042 14 0 0.0 3.2 0.00 0.00 0.00 71 1022.2
20260906124552 14 0 0.0 3.2 0.00 0.00 0.00 70 1022.1
20260906124041 15 0 0.0 3.2 0.00 0.00 0.00 70 1022.0
20260906123539 15 286 0.0 3.2 0.00 0.00 0.00 70 1022.0
20260906123056 15 0 0.0 1.6 0.00 0.00 0.00 70 1022.0
20260906122542 15 0 0.0 3.2 0.00 0.00 0.00 70 1022.0
20260906122042 15 0 0.0 3.2 0.00 0.00 0.00 70 1022.0
20260906121553 15 0 0.0 4.8 0.00 0.00 0.00 70 1021.8
20260906121040 15 286 0.0 4.8 0.00 0.00 0.00 70 1021.8
20260906120542 15 286 0.0 3.2 0.00 0.00 0.00 70 1021.9
20260906120053 15 0 0.0 4.8 0.00 0.00 0.00 69 1021.8
20260906115539 15 284 0.0 4.8 0.00 0.00 0.00 70 1021.8
20260906115038 15 0 0.0 4.8 0.00 0.00 0.00 70 1021.7
20260906114553 15 0 0.0 4.8 0.00 0.00 0.00 69 1021.7
20260906114042 15 0 0.0 3.2 0.00 0.00 0.00 69 1021.7
20260906113541 15 0 0.0 0.0 0.00 0.00 0.00 69 1021.7
20260906113101 15 0 0.0 0.0 0.00 0.00 0.00 69 1021.7
20260906112542 15 0 0.0 0.0 0.00 0.00 0.00 70 1021.6
20260906112042 15 0 0.0 1.6 0.00 0.00 0.00 70 1021.5
20260906111552 15 0 0.0 1.6 0.00 0.00 0.00 69 1021.5
20260906111043 15 0 0.0 1.6 0.00 0.00 0.00 69 1021.5
20260906110542 16 0 0.0 1.6 0.00 0.00 0.00 69 1021.3
20260906110047 16 0 0.0 0.0 0.00 0.00 0.00 69 1021.5
20260906105539 16 0 0.0 0.0 0.00 0.00 0.00 70 1021.3
20260906105039 16 0 0.0 0.0 0.00 0.00 0.00 70 1021.2
20260906104616 16 0 0.0 0.0 0.00 0.00 0.00 71 1021.3
20260906104038 16 0 0.0 3.2 0.00 0.00 0.00 71 1021.4
20260906103539 16 0 0.0 8.0 0.00 0.00 0.00 72 1021.4
20260906103055 16 360 1.6 8.0 0.00 0.00 0.00 72 1021.5
20260906102542 16 360 3.2 6.4 0.00 0.00 0.00 73 1021.5
20260906102039 16 360 1.6 6.4 0.00 0.00 0.00 73 1021.6
20260906101554 16 360 1.6 6.4 0.00 0.00 0.00 73 1021.7
20260906101044 16 0 0.0 1.6 0.00 0.00 0.00 73 1021.8
20260906100539 16 0 0.0 0.0 0.00 0.00 0.00 73 1021.8
20260906100058 16 0 0.0 1.6 0.00 0.00 0.00 73 1021.9
20260906095538 16 0 0.0 3.2 0.00 0.00 0.00 72 1021.7
20260906095039 16 0 0.0 6.4 0.00 0.00 0.00 72 1021.8
20260906094637 16 0 0.0 6.4 0.00 0.00 0.00 73 1021.7
20260906094042 16 227 0.0 3.2 0.00 0.00 0.00 73 1021.8
20260906093539 16 0 0.0 0.0 0.00 0.00 0.00 73 1021.7
20260906093105 16 0 0.0 0.0 0.00 0.00 0.00 72 1021.6
20260906092543 16 0 0.0 1.6 0.00 0.00 0.00 72 1021.5
20260906092039 16 0 0.0 3.2 0.00 0.00 0.00 72 1021.5
20260906091551 16 0 0.0 3.2 0.00 0.00 0.00 71 1021.6
20260906091042 16 0 0.0 3.2 0.00 0.00 0.00 71 1021.5
20260906090538 16 0 0.0 0.0 0.00 0.00 0.00 71 1021.4
20260906090100 16 0 0.0 0.0 0.00 0.00 0.00 71 1021.3
20260906085539 16 0 0.0 0.0 0.00 0.00 0.00 71 1021.4
20260906085038 16 0 0.0 0.0 0.00 0.00 0.00 71 1021.5
20260906084556 16 0 0.0 3.2 0.00 0.00 0.00 72 1021.5
20260906084039 16 0 0.0 3.2 0.00 0.00 0.00 71 1021.4
20260906083539 16 0 0.0 3.2 0.00 0.00 0.00 72 1021.4
20260906083054 17 227 0.0 3.2 0.00 0.00 0.00 72 1021.4
20260906082538 17 0 0.0 0.0 0.00 0.00 0.00 73 1021.7
20260906082043 17 0 0.0 0.0 0.00 0.00 0.00 73 1021.5
20260906081555 17 0 0.0 4.8 0.00 0.00 0.00 73 1021.6
20260906081039 17 0 0.0 4.8 0.00 0.00 0.00 73 1021.6
20260906080542 17 226 0.0 4.8 0.00 0.00 0.00 74 1021.6
20260906080059 17 0 0.0 6.4 0.00 0.00 0.00 74 1021.7
20260906075541 17 0 0.0 6.4 0.00 0.00 0.00 74 1021.6
20260906075039 17 219 0.0 3.2 0.00 0.00 0.00 74 1021.7
20260906074556 17 0 0.0 1.6 0.00 0.00 0.00 74 1021.8
20260906074038 17 126 0.0 1.6 0.00 0.00 0.00 74 1021.9
20260906073539 17 0 0.0 4.8 0.00 0.00 0.00 74 1021.8
20260906073058 17 0 0.0 6.4 0.00 0.00 0.00 74 1021.7
20260906072539 17 126 1.6 6.4 0.00 0.00 0.00 74 1021.7
20260906072038 17 126 0.0 6.4 0.00 0.00 0.00 75 1021.9
20260906071552 17 0 1.6 6.4 0.00 0.00 0.00 75 1022.0
20260906071046 17 0 3.2 6.4 0.00 0.00 0.00 75 1022.0
20260906070538 16 126 1.6 6.4 0.00 0.00 0.00 75 1022.1
20260906070057 16 0 1.6 9.7 0.00 0.00 0.00 75 1022.2
20260906065539 16 124 3.2 9.7 0.00 0.00 0.00 75 1022.1
20260906065038 16 123 1.6 3.2 0.00 0.00 0.00 74 1022.2
20260906064554 16 0 0.0 3.2 0.00 0.00 0.00 74 1022.2
20260906064038 17 0 0.0 3.2 0.00 0.00 0.00 74 1022.3
20260906063538 17 0 0.0 3.2 0.00 0.00 0.00 73 1022.2
20260906063057 17 0 0.0 3.2 0.00 0.00 0.00 73 1022.4
20260906062543 17 0 0.0 3.2 0.00 0.00 0.00 73 1022.2
20260906062044 17 0 0.0 3.2 0.00 0.00 0.00 73 1022.1
20260906061556 17 0 0.0 0.0 0.00 0.00 0.00 72 1022.1
20260906061042 17 0 0.0 0.0 0.00 0.00 0.00 72 1022.1
20260906060542 17 0 0.0 4.8 0.00 0.00 0.00 71 1022.0
20260906060054 17 0 1.6 4.8 0.00 0.00 0.00 71 1021.9
20260906055544 17 0 0.0 1.6 0.00 0.00 0.00 70 1021.8
20260906055043 17 0 0.0 1.6 0.00 0.00 0.00 70 1022.0
20260906054551 17 0 0.0 3.2 0.00 0.00 0.00 70 1021.7
20260906054044 17 0 0.0 4.8 0.00 0.00 0.00 70 1021.6
20260906053542 17 124 1.6 4.8 0.00 0.00 0.00 70 1021.6
20260906053055 18 123 1.6 4.8 0.00 0.00 0.00 69 1021.7
20260906052545 18 0 0.0 0.0 0.00 0.00 0.00 69 1021.8
20260906052044 18 0 0.0 3.2 0.00 0.00 0.00 69 1021.7
20260906051555 18 0 0.0 3.2 0.00 0.00 0.00 68 1021.7
20260906051047 18 123 0.0 3.2 0.00 0.00 0.00 68 1021.7
20260906050545 18 0 0.0 3.2 0.00 0.00 0.00 68 1021.8
20260906050112 18 0 0.0 1.6 0.00 0.00 0.00 67 1021.8
20260906045543 18 0 0.0 1.6 0.00 0.00 0.00 67 1021.8
20260906045043 18 0 0.0 1.6 0.00 0.00 0.00 66 1021.9
20260906044559 18 0 0.0 1.6 0.00 0.00 0.00 66 1022.0
20260906044044 19 0 0.0 1.6 0.00 0.00 0.00 65 1022.0
20260906043543 19 0 0.0 1.6 0.00 0.00 0.00 65 1022.1
20260906043057 19 0 0.0 1.6 0.00 0.00 0.00 65 1022.1
20260906042542 19 0 0.0 1.6 0.00 0.00 0.00 64 1022.2
20260906042042 20 0 0.0 0.0 0.00 0.00 0.00 63 1022.2
20260906041554 20 0 0.0 3.2 0.00 0.00 0.00 63 1022.2
20260906041043 20 0 0.0 3.2 0.00 0.00 0.00 62 1022.0
20260906040544 20 124 0.0 1.6 0.00 0.00 0.00 61 1021.8
20260906040107 20 0 0.0 3.2 0.00 0.00 0.00 61 1021.9
20260906035544 20 0 0.0 3.2 0.00 0.00 0.00 60 1022.1
20260906035044 20 124 0.0 3.2 0.00 0.00 0.00 59 1022.0
20260906034605 20 0 0.0 1.6 0.00 0.00 0.00 57 1022.2
20260906034043 20 0 0.0 1.6 0.00 0.00 0.00 56 1022.1
20260906033543 21 0 0.0 1.6 0.00 0.00 0.00 54 1022.0
20260906033058 21 0 0.0 3.2 0.00 0.00 0.00 54 1022.2
20260906032541 21 0 0.0 3.2 0.00 0.00 0.00 52 1022.1
20260906032042 21 123 1.6 3.2 0.00 0.00 0.00 51 1022.2
20260906031552 21 0 0.0 4.8 0.00 0.00 0.00 50 1022.0
20260906031042 21 0 0.0 4.8 0.00 0.00 0.00 49 1022.1
20260906030542 21 124 1.6 3.2 0.00 0.00 0.00 49 1022.0
20260906030056 21 0 0.0 4.8 0.00 0.00 0.00 49 1022.0
20260906025542 21 0 1.6 4.8 0.00 0.00 0.00 49 1021.7
20260906025043 21 124 1.6 4.8 0.00 0.00 0.00 49 1021.7
20260906024552 21 123 0.0 6.4 0.00 0.00 0.00 48 1021.7
20260906024045 21 123 0.0 6.4 0.00 0.00 0.00 48 1021.7
20260906023543 21 0 0.0 20.9 0.00 0.00 0.00 48 1021.7
20260906023055 21 0 0.0 20.9 0.00 0.00 0.00 46 1021.6
20260906022542 21 123 3.2 20.9 0.00 0.00 0.00 45 1021.4
20260906022046 22 325 0.0 3.2 0.00 0.00 0.00 45 1021.1
20260906021605 22 0 0.0 3.2 0.00 0.00 0.00 44 1020.8
20260906021041 22 325 0.0 3.2 0.00 0.00 0.00 43 1020.5
20260906020544 22 325 0.0 3.2 0.00 0.00 0.00 43 1020.4
20260906020107 23 0 0.0 1.6 0.00 0.00 0.00 43 1020.4
20260906015543 23 0 0.0 1.6 0.00 0.00 0.00 42 1020.5
20260906015042 23 0 0.0 1.6 0.00 0.00 0.00 42 1020.5
20260906014558 24 0 0.0 1.6 0.00 0.00 0.00 42 1020.5
20260906014043 24 0 0.0 0.0 0.00 0.00 0.00 41 1020.5
20260906013542 25 0 0.0 0.0 0.00 0.00 0.00 41 1020.4
20260906013058 25 0 0.0 1.6 0.00 0.00 0.00 40 1020.3
20260906012541 25 0 0.0 1.6 0.00 0.00 0.00 40 1020.3
20260906012041 25 0 0.0 1.6 0.00 0.00 0.00 39 1020.3
20260906011557 26 0 0.0 3.2 0.00 0.00 0.00 38 1020.3
20260906011046 26 0 0.0 3.2 0.00 0.00 0.00 38 1020.3
20260906010543 26 325 0.0 3.2 0.00 0.00 0.00 38 1020.2
20260906010106 26 0 0.0 3.2 0.00 0.00 0.00 37 1020.3
20260906005543 26 0 0.0 3.2 0.00 0.00 0.00 37 1020.3
20260906005043 27 49 0.0 1.6 0.00 0.00 0.00 38 1020.4
20260906004605 27 0 0.0 3.2 0.00 0.00 0.00 38 1020.5
20260906004042 27 0 0.0 3.2 0.00 0.00 0.00 37 1020.5
20260906003543 27 0 0.0 4.8 0.00 0.00 0.00 35 1020.5
20260906003101 27 45 0.0 4.8 0.00 0.00 0.00 35 1020.5
20260906002543 27 45 0.0 3.2 0.00 0.00 0.00 36 1020.5
20260906002043 27 45 0.0 3.2 0.00 0.00 0.00 35 1020.5
20260906001606 27 45 0.0 3.2 0.00 0.00 0.00 35 1020.5
20260906001042 27 0 0.0 3.2 0.00 0.00 0.00 35 1020.5
20260906000543 27 0 0.0 3.2 0.00 0.00 0.00 37 1020.5
20260906000057 27 0 0.0 3.2 0.00 0.00 0.00 35 1020.7
20260905235543 27 0 1.6 3.2 0.00 0.00 0.00 34 1020.5
20260905235043 27 0 0.0 6.4 0.00 0.00 0.00 36 1020.5
20260905234600 27 0 1.6 6.4 0.00 0.00 0.00 34 1020.4
20260905234044 27 45 0.0 6.4 0.00 0.00 0.00 33 1020.5
20260905233543 28 45 3.2 4.8 0.00 0.00 0.00 34 1020.5
20260905233112 28 45 0.0 4.8 0.00 0.00 0.00 35 1020.4
20260905232542 28 0 0.0 6.4 0.00 0.00 0.00 35 1020.4
20260905232042 28 0 1.6 6.4 0.00 0.00 0.00 34 1020.4
20260905231600 28 45 0.0 11.3 0.00 0.00 0.00 34 1020.4
20260905231045 28 45 3.2 11.3 0.00 0.00 0.00 34 1020.4
20260905230541 28 45 1.6 8.0 0.00 0.00 0.00 34 1020.3
20260905230059 27 0 0.0 9.7 0.00 0.00 0.00 36 1020.4
20260905225543 27 45 3.2 9.7 0.00 0.00 0.00 34 1020.5
20260905225043 27 44 3.2 9.7 0.00 0.00 0.00 35 1020.5
20260905224600 27 44 1.6 9.7 0.00 0.00 0.00 35 1020.6
20260905224045 27 44 3.2 9.7 0.00 0.00 0.00 35 1020.7
20260905223541 27 44 3.2 14.5 0.00 0.00 0.00 35 1020.7
20260905223055 27 0 4.8 14.5 0.00 0.00 0.00 35 1020.7
20260905222543 27 44 4.8 12.9 0.00 0.00 0.00 36 1020.8
20260905222042 27 44 6.4 12.9 0.00 0.00 0.00 36 1020.6
20260905221603 27 23 4.8 12.9 0.00 0.00 0.00 36 1020.8
20260905221042 27 22 4.8 12.9 0.00 0.00 0.00 36 1020.7
20260905220544 27 360 4.8 14.5 0.00 0.00 0.00 36 1020.7
20260905215543 27 355 3.2 9.7 0.00 0.00 0.00 35 1021.0